www.pogodaiklimat.ru

Погода и климат >> Архив погоды >> Буркина-Фасо >> Гауа


ПОГОДА в Гауа

  • Прогноз погоды в Гауа
  • Монитор погоды в Гауа

АРХИВ ПОГОДЫ в Гауа

Время (UTC), дата Ветер
(напр.,м/с)
 
Видим.   Явления Облачность Т
(С)
Тd
(С)
f
(%)
Тe
(С)
Тes
(С)
Комфортность P
(гПа)
Po
(гПа)
Тmin
(С)
Tmax
(С)
R
(мм)
R24
(мм)
S
(см)
12 12.07 ЮЗ 3 15 км 9/4 600 м
[Cu Sc Ac As Ci sp]
+29.0 +22.5 68 +38 +44 очень
душно
1012.2 979.7
15 12.07 ЮЗ 2 15 км 9/3 600 м
[Cb cap Ac As Ci sp]
+30.1 +22.8 65 +40 +45 очень
душно
1009.5 977.1
18 12.07 Ю 5 15 км гроза без осадков 9/1 600 м
[Cb cap Ac As Ci sp]
+23.1 +21.5 91 +31 +31 очень
душно
1010.7 977.9 +30.7 0.9
00 13.07 В 1 10 км {гроза} 9/0
[Ac trans Ci sp]
+23.6 +22.3 92 +31 +31 очень
душно
1012.6 979.9
15 13.07 Ю 2 15 км 9/5 600 м
[Cu Sc Ac trans Ci sp]
+29.2 +22.4 67 +38 +42 очень
душно
1011.6 978.9
18 13.07 Ю 2 15 км 9/1 600 м
[Cu Sc Ci sp]
+28.9 +22.7 69 +38 +38 очень
душно
1011.0 978.2 +29.7
21 13.07 штиль 0 10 км зарница 9/1 1200 м
[Cb cap Cs]
+26.5 +23.8 85 +36 +36 очень
душно
1013.1 980.3
00 14.07 В 1 10 км 9/0
[Ac trans Cs]
+25.3 +23.4 89 +34 +34 очень
душно
1013.5 980.7
06 14.07 Ю 1 15 км 9/0
[Ac trans Ci sp]
+23.7 +21.8 89 +30 +30 очень
душно
1013.0 980.1 +23.4
09 14.07 Ю 2 15 км 9/1 600 м
[Sc Ac trans Ci sp]
+26.0 +22.4 81 +34 +39 очень
душно
1014.7 981.9
12 14.07 ЮЗ 2 15 км 9/6 600 м
[Cu Sc Ac trans Ci sp]
+29.7 +21.7 62 +38 +43 очень
душно
1012.9 980.2
15 14.07 Ю 2 15 км 9/4 600 м
[Cu Sc Ci sp]
+31.8 +22.8 59 +42 +48 опасность
перегрева
1010.5 978.0
18 14.07 ЮЗ 2 15 км 9/3 600 м
[Cb cap Ci sp]
+30.2 +22.8 65 +40 +40 очень
душно
1010.3 977.6 +31.8
21 14.07 ЮЗ 1 10 км 9/0
[Ci sp]
+27.4 +22.5 75 +36 +36 очень
душно
1012.0 979.3
00 15.07 Ю 1 10 км 9/0
[Ci sp]
+25.6 +22.1 81 +33 +33 очень
душно
1012.4 979.7
03 15.07 ЮЗ 2 10 км 9/0
[Ci sp]
+24.5 +22.3 88 +32 +32 очень
душно
1010.5 977.9
06 15.07 ЮЗ 1 15 км 9/1 600 м
[Sc Ac trans Ci sp]
+24.1 +21.7 86 +31 +31 очень
душно
1011.3 978.6 +24.0
09 15.07 ЮЗ 3 15 км 9/0
[Ci sp]
+26.8 +21.8 74 +34 +41 очень
душно
1011.9 979.2
12 15.07 З 2 15 км 9/3 600 м
[Cu Sc Ac trans Ci sp]
+31.1 +22.3 60 +40 +49 очень
душно
1010.9 978.4
15 15.07 ЮВ 1 15 км гроза без осадков 9/5 600 м
[Cb cap Ac As Ci sp]
+32.0 +22.7 58 +42 +46 опасность
перегрева
1009.1 976.6
18 15.07 С 1 10 км слаб. ливневой дождь, в посл. час гроза 9/1 600 м
[Cb cap Ac As]
+22.4 +20.7 90 +29 +29 очень
душно
1010.4 977.3 +32.1 7
21 15.07 штиль 0 10 км 9/0
[Ac trans Ci sp]
+22.7 +21.1 91 +30 +30 очень
душно
1011.2 978.2
00 16.07 Ю 1 10 км {дождь} 9/0
[Ac trans Ci sp]
+22.5 +20.9 91 +29 +29 очень
душно
1010.9 978.2 0.1
03 16.07 СЗ 1 10 км 9/0
[Ac As Ci sp]
+22.5 +21.2 92 +30 +30 очень
душно
1010.6 977.9
06 16.07 Ю 1 15 км 9/1 600 м
[Sc Ci sp]
+22.6 +21.3 92 +30 +30 очень
душно
1011.2 978.1 +22.4 7
09 16.07 Ю 2 15 км 9/9 450 м
[St Ci sp]
+25.4 +22.5 84 +33 +34 очень
душно
1012.7 979.6
12 16.07 Ю 3 15 км 9/5 600 м
[Cu Sc Ci sp]
+29.2 +22.4 67 +38 +46 очень
душно
1011.8 978.9
15 16.07 Ю 2 15 км 9/3 600 м
[Cu Sc Ci sp]
+31.3 +22.7 60 +41 +48 опасность
перегрева
1010.0 977.4
18 16.07 Ю 1 15 км 9/1 600 м
[Cb cap Ac trans Ci sp]
+30.4 +22.7 63 +40 +40 очень
душно
1009.9 977.2 +31.3
21 16.07 Ю 2 10 км зарница 9/6 600 м
[Cb cap Ci sp]
+27.6 +23.9 80 +38 +38 очень
душно
1012.1 979.4
00 17.07 С 1 10 км гроза, ливневой дождь 9/3 600 м
[Cb cap Ac As Ci sp]
+24.2 +22.3 89 +31 +31 очень
душно
1012.9 980.1 0.6
03 17.07 СВ 1 10 км гроза, ливневой дождь 9/3 600 м
[Cb cap Ac As]
+23.9 +22.7 93 +31 +31 очень
душно
1012.6 979.9
06 17.07 штиль 0 15 км гроза, ливневой дождь 9/1 600 м
[Cb cap Ac As Ci sp]
+24.0 +23.3 96 +32 +32 очень
душно
1013.2 980.5 +23.5 13
09 17.07 штиль 0 15 км в посл. час гроза {дождь} 9/1 600 м
[Sc Ac As]
+24.6 +23.0 91 +33 +37 очень
душно
1015.2 982.2
12 17.07 СЗ 1 15 км {гроза, дождь} 9/5 600 м
[Cb cap Ac As Ci sp]
+27.1 +23.1 79 +36 +44 очень
душно
1014.5 981.6 0.1
15 17.07 З 1 15 км 9/6 600 м
[Cb cap Ac trans Ci sp]
+29.7 +22.4 65 +39 +42 очень
душно
1011.6 978.9
18 17.07 ЮЗ 1 15 км 9/1 600 м
[Cu Sc Ac trans Ci sp]
+29.4 +23.1 69 +39 +40 очень
душно
1011.2 978.4 +30.3 0.1
21 17.07 штиль 0 10 км 9/0
[Ci sp]
+26.6 +24.3 87 +37 +37 очень
душно
1012.1 979.2
00 18.07 штиль 0 10 км 9/0
[Ci sp]
+25.0 +23.7 93 +34 +34 очень
душно
1013.0 980.1
03 18.07 штиль 0 10 км 9/0
[Ac trans Ci sp]
+24.5 +23.5 94 +33 +33 очень
душно
1012.1 979.4
06 18.07 штиль 0 15 км 9/0
[Ac cast Ci sp]
+23.8 +22.8 94 +31 +31 очень
душно
1012.2 979.5 +23.6 0.1
09 18.07 ЮЗ 3 15 км 9/3 600 м
[Sc Ci sp]
+26.5 +22.9 81 +35 +40 очень
душно
1013.8 980.9
12 18.07 З 1 15 км 9/5 600 м
[Cu Sc Ac trans Ci sp]
+30.0 +22.8 65 +40 +47 очень
душно
1013.6 980.8
18 18.07 З 2 15 км 9/1 600 м
[Sc Ac trans Ci sp]
+31.3 +22.6 60 +41 +41 опасность
перегрева
1008.7 976.1 +32.6
21 18.07 СВ 1 10 км зарница 9/5 600 м
[Cb cap Ac trans Ci sp]
+29.0 +25.7 82 +43 +43 опасность
перегрева
1011.8 979.1
03 19.07 З 1 10 км {гроза, дождь} 9/1 600 м
[Sc Ac As]
+23.6 +22.0 91 +30 +30 очень
душно
1011.5 978.9

 

Местоположение метеостанции Гауа (Буркина-Фасо): широта 10.33 долгота -3.18 высота над уровнем моря 335 м.

В архиве по умолчанию представлена погода в Гауа за последнюю неделю. Архивные данные за месяц целиком и за предыдущие месяцы, начиная с января 2011 года, Вы можете получить, выбрав интересующий диапазон дат из раскрывающегося списка и нажав кнопку "Ввод!".


*Определитесь, кто Вы:
робот инопланетянин человек

Внимание! Время в таблицах - всемирное. Для получения местного времени необходимо прибавить поправку, которая равна 0 ч.

Смотрите также архив погоды в соседних городах и на ближайших метеорологических станциях:

Погода в Ва (Гана) (81 км)
Погода в Бобо-Диуласо (Буркина-Фасо) (156 км)
Погода в Боромо (Буркина-Фасо) (160 км)
Погода в Боле (Гана) (164 км)
Погода в Навронго (Гана) (236 км)
Погода в По (Буркина-Фасо) (240 км)
Погода в Дедугу (Буркина-Фасо) (240 км)
Погода в Бондуку (Кот-д'Ивуар) (257 км)
Погода в Тамале (Гана) (271 км)
Погода в Корого (Кот-д'Ивуар) (286 км)

Пояснения к столбцам:

Ветер - указаны скорость ветра в м/с - средняя за 10 мин, порывы в срок и между сроками (в фигурных скобках) и направление, откуда дует ветер: С - северный, СВ - северо-восточный, В - восточный, ЮВ - юго-восточный, Ю - южный, ЮЗ - юго-западный, З - западный, СЗ - северо-западный.
Видимость - горизонтальная дальность видимости в метрах или километрах. При видимости от 1 до 10 км при отсутствии осадков обычно наблюдается дымка, при ухудшении видимости до 1 км и менее - туман. В сухую погоду видимость может ухудшаться дымом, пылью или мглою.
Явления - указаны атмосферные явления, наблюдавшиеся в срок или в последний час перед сроком; фигурными скобками обозначены явления, наблюдавшиеся между сроками (за 1-3 часа до срока); квадратными скобками обозначены град или гололедные отложения с указанием их диаметра в мм.
Облачность - указаны через наклонную черту общая и нижняя облачность в баллах и высота нижней границы облаков в метрах; квадратными скобками обозначены формы облаков: Ci - перистые, Cs - перисто-слоистые, Cc - перисто-кучевые, Ac - высококучевые, As - высокослоистые, Sc - слоисто-кучевые, Ns - слоисто-дождевые, Cu - кучевые, Cb - кучево-дождевые. Подробнее классификацию облаков см. в Атласе облаков (PDF).
T - Температура воздуха - температура, измеренная на высоте 2 м над землей.
Td - Температура точки росы - температура, при понижении до которой содержащийся в воздухе водяной пар достигнет насыщения.
f - Относительная влажность воздуха - влажноcть воздуха, измеренная на высоте 2 м над землей.
Te - Эффективная температура - температура, которую ощущает одетый по сезону человек в тени. Характеристика душности погоды. При расчете учитывается влияние влажности воздуха и скорости ветра на теплоощущения человека.
Tes - Эффективная температура на солнце - температура, которую ощущает человек, с поправкой на солнечный нагрев. Характеристика знойности погоды. Зависит от высоты солнца над горизонтом, облачности и скорости ветра. Ночью, в пасмурную погоду, а также при ветре 12 м/с и более поправка равна нулю.
P - Атмосферное давление - приведенное к уровню моря атмосферное давление.
Po - Атмосферное давление - измеренное на уровне метеостанции атмосферное давление.
Tmin - Минимальная температура - минимум температуры воздуха на высоте 2 м над землей.
Tmax - Максимальная температура - максимум температуры воздуха на высоте 2 м над землей.
R - Количество осадков - Количество выпавших осадков за период времени, мм. При наведении курсора мыши на число - период времени, за который выпало указанное количество осадков.
R24 - Количество осадков - Количество выпавших осадков за 24 часа, мм.
S - Снежный покров - Высота снежного покрова, см. При наведении курсора мыши на число - состояние снежного покрова и степень покрытия местности в баллах.